Location: Ladrillo (historical)
(32.8195°N, 117.2231°W)
Time: 19:56:59
(UTC+00:00)

NOAA 18 - Pass Details

Date: 28 April 2021
Orbit: 840 x 861 km, 99.0° (Epoch: 05 May)

Event Time Altitude Azimuth Distance (km) Brightness Sun altitude
Exits shadow 03:55:33 17° 75° (ENE) 2,006 6.8 -17.6°
Maximum altitude 03:56:14 17° 65° (ENE) 1,985 6.8 -17.7°
Drops below altitude 10° 03:59:41 10° 26° (NNE) 2,460 7.7 -18.3°
Sets 04:02:48 0° 7° (N) 3,398 8.7 -18.9°
